Location: Avon
(37.7514°N, 90.2235°W)
Time: 18:44:13
(UTC+00:00)

A-11 Canister half - Pass Details

Date: 12 November 2025
Orbit: 1526 x 1681 km, 47.3° (Epoch: 06 December)

Event Time Altitude Azimuth Distance (km) Brightness Sun altitude
Rises 02:59:54 0° 270° (W) 4,853 12.2 -48.8°
Reaches altitude 10° 03:03:13 10° 275° (W) 3,846 11.6 -49.4°
Enters shadow 03:08:56 36° 299° (WNW) 2,349 10.1 -50.5°
